Regional Weather Roundup
Issued by NWS Sioux Falls, SD

Home | Current Version | Previous Version | Text Only | Print | Product List | Glossary On
Versions: 1 2 3 4 5 6 7 8 9 10 11 12 13 14 15 16 17 18 19 20 21 22 23 24 25 26 27 28 29 30 31 32 33 34 35 36 37 38 39 40 41 42 43 44 45 46 47 48 49 50
000
ASUS43 KFSD 091510
RWRFSD

WEATHER ROUNDUP FOR SE SOUTH DAKOTA/SW MINNESOTA/NW IOWA
NATIONAL WEATHER SERVICE SIOUX FALLS SD
1000 AM CDT WED JUL 09 2014

NOTE: "FAIR" INDICATES FEW OR NO CLOUDS BELOW 12,000 FEET WITH NO
SIGNIFICANT WEATHER AND OR OBSTRUCTIONS TO VISIBILITY.


SDZ038>040-050-052>070-091600-
SOUTHEAST SOUTH DAKOTA

CITY           SKY/WX    TMP DP  RH WIND       PRES   REMARKS
CHAMBERLAIN    SUNNY     71  56  58 W3        30.07S
HURON          SUNNY     70  57  63 CALM      30.04S
MADISON        FAIR      72  57  60 W5        30.06S
MITCHELL       SUNNY     71  59  65 N3        30.06R
SIOUX FALLS    SUNNY     72  58  61 CALM      30.05S
WINNER         PTSUNNY   75  56  51 SW7       30.07S
YANKTON        SUNNY     70  61  73 CALM      30.07S
$$

MNZ071-072-080-081-089-090-097-098-091600-
SOUTHWEST MINNESOTA

CITY           SKY/WX    TMP DP  RH WIND       PRES   REMARKS
FAIRMONT       SUNNY     72  48  43 W7        30.04S
JACKSON        SUNNY     72  54  53 W7        30.05S
LUVERNE        SUNNY     72  59  64 W7        30.06R
MARSHALL       MOSUNNY   70  55  60 MISG      30.04R
MONTEVIDEO     SUNNY     72  61  68 NW7       30.03R
PIPESTONE      SUNNY     70  57  64 NW8       30.06R
REDWOOD FALLS  SUNNY     69  57  65 W6        30.02R
TRACY          SUNNY     72  59  62 NW9       30.04S
WINDOM         MOSUNNY   72  57  60 NW6       30.05R
WORTHINGTON    SUNNY     72  57  60 NW7       30.07R
$$

IAZ001>003-012>014-020>022-031-032-NEZ013-014-SDZ071-091600-
NORTHWEST IOWA

CITY           SKY/WX    TMP DP  RH WIND       PRES   REMARKS
CHEROKEE       SUNNY     68  60  75 CALM      30.07R
DENISON        SUNNY     70  59  68 CALM      30.06S
ESTHERVILLE    SUNNY     70  51  51 W6        30.05S
LE MARS        SUNNY     70  63  78 SW5       30.08R
ORANGE CITY    SUNNY     72  59  64 CALM      30.07S
SHELDON        SUNNY     72  59  64 NW5       30.05S
SIOUX CITY     SUNNY     70  61  73 W5        30.08R
SPENCER        SUNNY     70  56  61 SW6       30.06S
STORM LAKE     SUNNY     68  57  68 SW3       30.07S
$$

ABBREVIATIONS USED IN REMARKS
   TC - TEMPERATURE IN CELSIUS
  WCI - WIND CHILL INDEX
   HX - HEAT INDEX
  VSB - VISIBILITY



USA.gov is the U.S. government's official web portal to all federal, state and local government web resources and services.